User: anonymous   Login
Location: Cypress Hills Dark-Sky Preserve - CHICO
(49.6176°N, 110.2634°W)
Time: 23:33:12
(UTC-06:00)
Language:

SPOT 5 - Orbit

View from above orbital plane
View from above orbital plane
View from above satellite
View from above satellite

Ground track
Ground track

The orbit data is extracted from the following two-line orbital elements,

1 27421U 02021A   14303.85067072  .00000183  00000-0  10567-3 0   790
2 27421 098.5447 002.5668 0001383 089.0880 039.9898 14.20120159647570
Epoch (UTC): 30 October 2014 20:24:57
Eccentricity: 0.0001383
inclination: 98.5447°
perigee height: 824 km
apogee height: 826 km
right ascension of ascending node: 2.5668°
argument of perigee: 89.0880°
revolutions per day: 14.20120159
mean anomaly at epoch: 39.9898°
orbit number at epoch: 64757

The dashed part of the orbit path shows where the satellite is in the earth's shadow,  

DLR